Flag for Netherlands Weather past 2 weeks in Tilburg, Netherlands

Now
48 °F

Overcast.


Feels Like: 46 °F
Forecast: 50 / 57 °F
Wind: 5 mph from Southwest

Location: Gilze-Rijen

Current Time: Oct 23, 2014 at 5:58:28 AM

Latest Report: Oct 23, 2014 at 5:25 AM


Visibility: N/A

Pressure: 30.18 "Hg

Humidity: 94%

Dew point: 46 °F

Location of TilburgLocation

Historic Weather in Tilburg — Graph

°F

Tilburg temperature yesterday

Maximum temperature yesterday: 55 °F (at 1:55 PM)
Minimum temperature yesterday: 45 °F (at 4:55 AM)
Average temperature yesterday: 49 °F

Past Weeks' High & Low Weather Summary

 TemperatureHumidityPressure
High73 °F (Oct 18, 2:25 PM)100% (Oct 8, 12:55 PM)30.18 "Hg (Oct 8, 12:55 PM)
Low41 °F (Oct 12, 7:25 AM)60% (Oct 9, 3:55 PM)29.47 "Hg (Oct 8, 10:55 PM)
Average57 °F86%29.81 "Hg
* Reported Oct 8 4:25 AM — Oct 23 4:55 AM, Tilburg, Weather by CustomWeather, © 2014

Note: Actual official high and low records may vary slightly from our data, if they occured in-between our weather recording intervals... More about our weather records

Advertising

Tilburg weather history for previous 24 hours

 ConditionsComfort  
Time TempWeatherWind HumidityBarometerVisibility
4:55 AM
Oct 23
48 °FPassing clouds.6 mph94%30.18 "HgN/A
4:25 AM50 °FMostly cloudy.6 mph88%30.18 "HgN/A
3:55 AM50 °FOvercast.5 mph88%30.18 "HgN/A
3:25 AM50 °FMostly cloudy.5 mph88%30.18 "HgN/A
2:55 AM50 °FMostly cloudy.5 mph88%30.18 "HgN/A
2:25 AM50 °FFog.6 mph88%30.18 "Hg6 mi
1:55 AM50 °FFog.5 mph94%30.18 "Hg6 mi
1:25 AM50 °FMostly cloudy.5 mph88%30.18 "HgN/A
12:55 AM50 °FPassing clouds.6 mph82%30.18 "HgN/A
12:25 AM48 °FMostly cloudy.7 mph87%30.18 "HgN/A
11:55 PM
Oct 22
48 °FMostly cloudy.5 mph87%30.18 "HgN/A
11:25 PM46 °FPassing clouds.5 mph93%30.18 "HgN/A
10:55 PM46 °FPassing clouds.5 mph87%30.18 "HgN/A
10:25 PM48 °FCool.6 mph87%30.18 "HgN/A
9:55 PM48 °FPassing clouds.2 mph87%30.18 "HgN/A
9:25 PM48 °FOvercast.5 mph87%30.18 "HgN/A
8:55 PM46 °FCool.2 mph87%30.18 "HgN/A
8:25 PM48 °FPassing clouds.5 mph82%30.18 "HgN/A
7:55 PM50 °FPassing clouds.6 mph82%30.15 "HgN/A
7:25 PM52 °FOvercast.7 mph77%30.15 "HgN/A
6:55 PM52 °FOvercast.7 mph77%30.15 "HgN/A
6:25 PM52 °FOvercast.7 mph77%30.15 "HgN/A
5:55 PM52 °FOvercast.9 mph82%30.15 "HgN/A
5:25 PM52 °FPartly sunny.7 mph88%30.15 "HgN/A
4:59 PM52 °FLight rain. Broken clouds.12 mph82%30.12 "HgN/A
4:25 PM54 °FBroken clouds.18 mph72%30.12 "HgN/A
3:55 PM55 °FBroken clouds.16 mph72%30.12 "HgN/A
3:25 PM55 °FScattered clouds.17 mph67%30.12 "HgN/A
2:55 PM54 °FPassing clouds.20 mph72%30.12 "HgN/A
2:25 PM55 °FPassing clouds.21 mph67%30.09 "HgN/A
1:55 PM55 °FPassing clouds.15 mph67%30.09 "HgN/A
1:25 PM54 °FScattered clouds.15 mph77%30.09 "HgN/A
12:55 PM52 °FLight rain. Passing clouds.13 mph82%30.09 "HgN/A
12:25 PM54 °FCloudy.13 mph72%30.09 "HgN/A
11:55 AM52 °FBroken clouds.8 mph77%30.09 "HgN/A
11:25 AM50 °FLight rain. Broken clouds.9 mph82%30.09 "HgN/A
10:55 AM52 °FLight rain. Partly sunny.8 mph72%30.07 "HgN/A
10:25 AM50 °FBroken clouds.14 mph76%30.07 "HgN/A
9:55 AM50 °FScattered clouds.13 mph76%30.04 "HgN/A
9:25 AM48 °FPassing clouds.15 mph76%30.04 "HgN/A
8:59 AM48 °FPartly cloudy.17 mph76%30.04 "HgN/A
8:25 AM46 °FLight rain. Passing clouds.8 mph87%30.01 "HgN/A
7:55 AM46 °FPartly cloudy.10 mph82%30.01 "HgN/A
7:25 AM46 °FPartly cloudy.18 mph87%30.01 "HgN/A
6:55 AM46 °FOvercast.6 mph87%29.98 "HgN/A
6:25 AM45 °FPartly cloudy.12 mph93%29.98 "HgN/A
5:55 AM45 °FRain showers. Mostly cloudy.10 mph93%29.98 "Hg5 mi
5:25 AM45 °FRain. Partly cloudy.15 mph93%29.98 "Hg4 mi
5:04 AM46 °FRain showers. Mostly cloudy.13 mph87%29.98 "HgN/A
Weather by CustomWeather, © 2014

See weather overviewHow to use our weather pages